Location: Harbor Side
(32.6101°N, 117.0814°W)
Time: 06:50:12
(UTC+00:00)

Cosmos 1674 - Pass Details

Date: 21 April 2021
Orbit: 493 x 516 km, 82.5° (Epoch: 13 May)

Event Time Altitude Azimuth Distance (km) Brightness Sun altitude
Rises 12:08:54 0° 173° (S) 2,592 6.1 -13.3°
Reaches altitude 10° 12:11:03 10° 167° (SSE) 1,715 5.2 -12.9°
Maximum altitude 12:14:40 47° 93° (E) 679 3.7 -12.2°
Drops below altitude 10° 12:18:20 10° 19° (NNE) 1,739 6.0 -11.4°
Sets 12:20:32 0° 14° (NNE) 2,632 6.8 -11.0°
